Location: Brompton
(51.4000°N, 0.5333°E)
Time: 17:55:44
(UTC+00:00)

JB-3 - Pass Details

Date: 11 May 2021
Orbit: 524 x 590 km, 97.3° (Epoch: 16 June)

Event Time Altitude Azimuth Distance (km) Brightness Sun altitude
Rises 21:13:23 0° 15° (NNE) 2,724 8.4 -12.1°
Reaches altitude 10° 21:15:33 10° 19° (NNE) 1,816 7.4 -12.3°
Maximum altitude 21:19:26 61° 101° (E) 614 4.3 -12.7°
Enters shadow 21:22:28 15° 179° (S) 1,469 6.0 -13.0°
